TimeEST,TemperatureF,Dew PointF,Humidity,Sea Level PressureIn,VisibilityMPH,Wind Direction,Wind SpeedMPH,Gust SpeedMPH,PrecipitationIn,Events,Conditions,WindDirDegrees,DateUTC
12:51 AM,48.0,30.9,52,30.33,10.0,WSW,10.4,-,N/A,,Clear,240,2013-02-19 05:51:00
1:51 AM,50.0,37.9,63,30.31,10.0,WSW,6.9,-,N/A,,Clear,240,2013-02-19 06:51:00
2:51 AM,48.9,39.9,71,30.29,10.0,WSW,6.9,-,N/A,,Clear,250,2013-02-19 07:51:00
3:51 AM,48.9,41.0,74,30.26,10.0,WSW,5.8,-,N/A,,Clear,250,2013-02-19 08:51:00
4:51 AM,48.0,42.1,80,30.25,10.0,SW,4.6,-,N/A,,Mostly Cloudy,220,2013-02-19 09:51:00
5:51 AM,50.0,44.1,80,30.22,10.0,SSE,6.9,-,N/A,,Partly Cloudy,160,2013-02-19 10:51:00
6:51 AM,45.0,42.1,90,30.22,10.0,SSE,3.5,-,N/A,,Clear,160,2013-02-19 11:51:00
7:51 AM,53.1,46.9,80,30.19,10.0,ESE,8.1,-,N/A,,Clear,120,2013-02-19 12:51:00
8:51 AM,57.0,48.0,72,30.19,10.0,ESE,6.9,-,N/A,,Partly Cloudy,110,2013-02-19 13:51:00
9:51 AM,57.0,48.9,74,30.16,10.0,ESE,5.8,-,N/A,,Partly Cloudy,120,2013-02-19 14:51:00
10:51 AM,60.1,50.0,69,30.14,10.0,South,5.8,-,N/A,,Partly Cloudy,190,2013-02-19 15:51:00
11:51 AM,61.0,52.0,72,30.10,10.0,SW,12.7,-,N/A,,Mostly Cloudy,230,2013-02-19 16:51:00
12:51 PM,57.9,55.0,90,30.06,7.0,SSW,15.0,26.5,0.02,,Overcast,210,2013-02-19 17:51:00
1:51 PM,60.1,55.0,83,30.01,7.0,SSW,13.8,20.7,N/A,,Mostly Cloudy,210,2013-02-19 18:51:00
2:51 PM,61.0,55.0,81,29.97,7.0,SSW,19.6,27.6,0.01,,Overcast,210,2013-02-19 19:51:00
3:33 PM,57.2,55.4,94,29.97,2.5,WSW,19.6,43.7,0.02,Rain,Light Rain,250,2013-02-19 20:33:00
3:40 PM,57.2,53.6,88,29.97,4.0,WSW,19.6,29.9,0.02,Rain,Light Rain,240,2013-02-19 20:40:00
3:51 PM,55.9,54.0,93,29.97,6.0,WSW,17.3,31.1,0.02,Rain,Light Rain,250,2013-02-19 20:51:00
4:51 PM,57.9,51.1,78,29.94,8.0,SW,18.4,29.9,0.00,Rain,Light Rain,220,2013-02-19 21:51:00
5:51 PM,57.9,53.1,84,29.91,7.0,SW,20.7,29.9,0.01,,Overcast,220,2013-02-19 22:51:00
7:51 PM,57.9,51.1,78,29.91,9.0,WSW,19.6,34.5,N/A,,Overcast,250,2013-02-20 00:51:00
8:51 PM,57.0,51.1,81,29.90,9.0,West,19.6,32.2,N/A,,Overcast,260,2013-02-20 01:51:00
9:06 PM,57.2,51.8,82,29.90,8.0,WSW,18.4,26.5,N/A,,Overcast,250,2013-02-20 02:06:00
9:51 PM,55.9,52.0,87,29.90,7.0,West,15.0,27.6,N/A,,Mostly Cloudy,260,2013-02-20 02:51:00
10:51 PM,52.0,50.0,93,29.90,10.0,West,11.5,19.6,N/A,,Partly Cloudy,280,2013-02-20 03:51:00
11:51 PM,50.0,46.0,86,29.92,10.0,WNW,9.2,-,N/A,,Mostly Cloudy,300,2013-02-20 04:51:00